Time,TemperatureF,DewpointF,PressureIn,WindDirection,WindDirectionDegrees,WindSpeedMPH,WindSpeedGustMPH,Humidity,HourlyPrecipIn,Conditions,Clouds,dailyrainin,SoftwareType,DateUTC
2013-02-21 00:01:00,31.5,6.9,29.98,SE,135,0.2,1.1,35,0.00,,,0.00,WUHU216HW,2013-02-21 05:01:00,
2013-02-21 00:06:00,31.7,6.9,29.98,SE,135,0.4,1.1,35,0.00,,,0.00,WUHU216HW,2013-02-21 05:06:00,
2013-02-21 00:11:00,31.7,6.9,29.97,SE,135,0.0,0.7,35,0.00,,,0.00,WUHU216HW,2013-02-21 05:11:00,
2013-02-21 00:16:00,31.7,6.9,29.98,SE,135,0.2,0.9,35,0.00,,,0.00,WUHU216HW,2013-02-21 05:16:00,
2013-02-21 00:21:00,31.5,7.5,29.97,SE,135,0.7,0.9,36,0.00,,,0.00,WUHU216HW,2013-02-21 05:21:00,
2013-02-21 00:26:00,31.3,7.3,29.97,SE,135,0.0,1.1,36,0.00,,,0.00,WUHU216HW,2013-02-21 05:26:00,
2013-02-21 00:31:00,31.3,7.3,29.97,SE,135,0.4,1.1,36,0.00,,,0.00,WUHU216HW,2013-02-21 05:31:00,
2013-02-21 00:36:00,31.5,6.9,29.97,ESE,113,0.4,1.1,35,0.00,,,0.00,WUHU216HW,2013-02-21 05:36:00,
2013-02-21 00:41:00,31.7,6.9,29.98,SE,135,0.0,1.1,35,0.00,,,0.00,WUHU216HW,2013-02-21 05:41:00,
2013-02-21 00:46:00,31.5,8.1,29.97,SE,135,0.0,0.7,37,0.00,,,0.00,WUHU216HW,2013-02-21 05:46:00,
2013-02-21 00:51:00,31.3,7.9,29.98,SE,135,0.0,0.7,37,0.00,,,0.00,WUHU216HW,2013-02-21 05:51:00,
2013-02-21 00:57:00,30.8,7.4,29.98,SE,135,0.4,0.4,37,0.00,,,0.00,WUHU216HW,2013-02-21 05:57:00,
2013-02-21 01:02:00,30.6,7.3,29.98,SE,135,0.0,0.4,37,0.00,,,0.00,WUHU216HW,2013-02-21 06:02:00,
2013-02-21 01:07:00,30.4,7.1,29.99,SE,135,0.0,0.0,37,0.00,,,0.00,WUHU216HW,2013-02-21 06:07:00,
2013-02-21 01:12:00,30.1,6.8,29.98,SE,135,0.0,0.0,37,0.00,,,0.00,WUHU216HW,2013-02-21 06:12:00,
2013-02-21 01:17:00,29.9,7.2,29.99,SE,135,0.0,0.0,38,0.00,,,0.00,WUHU216HW,2013-02-21 06:17:00,
2013-02-21 01:22:00,29.7,7.8,30.00,SE,135,0.0,0.0,39,0.00,,,0.00,WUHU216HW,2013-02-21 06:22:00,
2013-02-21 01:27:00,29.7,7.8,29.99,SE,135,0.0,0.0,39,0.00,,,0.00,WUHU216HW,2013-02-21 06:27:00,
2013-02-21 01:32:00,29.7,8.4,29.99,SE,135,0.0,0.0,40,0.00,,,0.00,WUHU216HW,2013-02-21 06:32:00,
2013-02-21 01:37:00,29.5,8.2,29.99,SE,135,0.0,0.0,40,0.00,,,0.00,WUHU216HW,2013-02-21 06:37:00,
2013-02-21 01:42:00,29.5,8.6,29.99,SE,135,0.0,0.0,41,0.00,,,0.00,WUHU216HW,2013-02-21 06:42:00,
2013-02-21 01:47:00,29.7,8.8,30.00,SE,135,0.2,0.2,41,0.00,,,0.00,WUHU216HW,2013-02-21 06:47:00,
2013-02-21 01:52:00,29.5,8.6,29.99,SE,135,0.0,0.2,41,0.00,,,0.00,WUHU216HW,2013-02-21 06:52:00,
2013-02-21 01:57:00,29.7,8.4,29.99,SE,135,0.0,0.0,40,0.00,,,0.00,WUHU216HW,2013-02-21 06:57:00,
2013-02-21 02:02:00,29.7,8.4,30.00,SE,135,0.0,0.0,40,0.00,,,0.00,WUHU216HW,2013-02-21 07:02:00,
2013-02-21 02:07:00,29.7,8.4,29.95,SE,135,0.0,0.0,40,0.00,,,0.00,WUHU216HW,2013-02-21 07:07:00,
2013-02-21 02:12:00,29.9,9.0,29.95,SE,135,0.0,0.0,41,0.00,,,0.00,WUHU216HW,2013-02-21 07:12:00,
2013-02-21 02:17:00,29.9,9.0,29.95,SE,135,0.0,0.0,41,0.00,,,0.00,WUHU216HW,2013-02-21 07:17:00,
2013-02-21 02:22:00,29.9,9.6,29.95,SE,135,0.0,0.0,42,0.00,,,0.00,WUHU216HW,2013-02-21 07:22:00,
2013-02-21 02:27:00,29.9,9.6,29.95,SE,135,0.0,0.0,42,0.00,,,0.00,WUHU216HW,2013-02-21 07:27:00,
2013-02-21 02:32:00,29.9,9.6,29.95,SE,135,0.0,0.0,42,0.00,,,0.00,WUHU216HW,2013-02-21 07:32:00,
2013-02-21 02:37:00,29.9,9.6,29.95,SE,135,0.0,0.0,42,0.00,,,0.00,WUHU216HW,2013-02-21 07:37:00,
2013-02-21 02:42:00,29.9,9.6,29.95,SE,135,0.0,0.0,42,0.00,,,0.00,WUHU216HW,2013-02-21 07:42:00,
2013-02-21 02:47:00,29.9,10.0,29.95,SE,135,0.0,0.0,43,0.00,,,0.00,WUHU216HW,2013-02-21 07:47:00,
2013-02-21 02:52:00,29.7,9.8,29.95,SE,135,0.0,0.0,43,0.00,,,0.00,WUHU216HW,2013-02-21 07:52:00,
2013-02-21 02:57:00,29.5,9.7,29.94,SE,135,0.0,0.0,43,0.00,,,0.00,WUHU216HW,2013-02-21 07:57:00,
2013-02-21 03:02:00,29.5,9.7,29.94,SE,135,0.0,0.0,43,0.00,,,0.00,WUHU216HW,2013-02-21 08:02:00,
2013-02-21 03:07:00,29.5,9.2,29.94,SE,135,0.0,0.0,42,0.00,,,0.00,WUHU216HW,2013-02-21 08:07:00,
2013-02-21 03:12:00,29.5,8.6,29.94,SE,135,0.0,0.0,41,0.00,,,0.00,WUHU216HW,2013-02-21 08:12:00,
2013-02-21 03:17:00,29.5,8.2,29.94,SE,135,0.0,0.0,40,0.00,,,0.00,WUHU216HW,2013-02-21 08:17:00,
2013-02-21 03:22:00,29.7,8.4,29.94,SE,135,0.0,0.0,40,0.00,,,0.00,WUHU216HW,2013-02-21 08:22:00,
2013-02-21 03:27:00,29.7,8.4,29.94,SE,135,0.0,0.0,40,0.00,,,0.00,WUHU216HW,2013-02-21 08:27:00,
2013-02-21 03:32:00,29.5,8.6,29.95,SE,135,0.0,0.0,41,0.00,,,0.00,WUHU216HW,2013-02-21 08:32:00,
2013-02-21 03:37:00,29.3,10.0,29.94,SE,135,0.0,0.0,44,0.00,,,0.00,WUHU216HW,2013-02-21 08:37:00,
2013-02-21 03:42:00,29.2,9.9,29.95,SE,135,0.0,0.4,44,0.00,,,0.00,WUHU216HW,2013-02-21 08:42:00,
2013-02-21 03:47:00,29.0,10.2,29.96,SW,225,0.0,0.4,45,0.00,,,0.00,WUHU216HW,2013-02-21 08:47:00,
2013-02-21 03:52:00,29.0,10.2,29.95,SW,225,0.0,0.4,45,0.00,,,0.00,WUHU216HW,2013-02-21 08:52:00,
2013-02-21 03:57:00,28.8,10.5,29.95,SW,225,0.0,0.0,46,0.00,,,0.00,WUHU216HW,2013-02-21 08:57:00,
2013-02-21 04:02:00,28.8,10.1,29.95,SE,135,0.0,0.2,45,0.00,,,0.00,WUHU216HW,2013-02-21 09:02:00,
2013-02-21 04:07:00,28.8,10.5,29.95,SE,135,0.0,0.2,46,0.00,,,0.00,WUHU216HW,2013-02-21 09:07:00,
2013-02-21 04:12:00,28.6,10.4,29.95,SE,135,0.0,0.0,46,0.00,,,0.00,WUHU216HW,2013-02-21 09:12:00,
2013-02-21 04:17:00,28.4,9.7,29.95,SE,135,0.0,0.0,45,0.00,,,0.00,WUHU216HW,2013-02-21 09:17:00,
2013-02-21 04:22:00,28.4,9.7,29.95,SE,135,0.0,0.0,45,0.00,,,0.00,WUHU216HW,2013-02-21 09:22:00,
2013-02-21 04:27:00,28.4,10.3,29.95,SSE,158,0.0,0.0,46,0.00,,,0.00,WUHU216HW,2013-02-21 09:27:00,
2013-02-21 04:32:00,28.4,10.3,29.95,SSE,158,0.0,0.0,46,0.00,,,0.00,WUHU216HW,2013-02-21 09:32:00,
2013-02-21 04:37:00,28.3,10.1,29.95,SSE,158,0.0,0.0,46,0.00,,,0.00,WUHU216HW,2013-02-21 09:37:00,
2013-02-21 04:42:00,28.1,10.4,29.95,SSE,158,0.0,0.0,47,0.00,,,0.00,WUHU216HW,2013-02-21 09:42:00,
2013-02-21 04:47:00,28.1,10.4,29.96,SSE,158,0.0,0.0,47,0.00,,,0.00,WUHU216HW,2013-02-21 09:47:00,
2013-02-21 04:52:00,28.1,9.9,29.95,South,180,0.0,0.0,46,0.00,,,0.00,WUHU216HW,2013-02-21 09:52:00,
2013-02-21 04:57:00,28.1,10.4,29.96,South,180,0.0,0.0,47,0.00,,,0.00,WUHU216HW,2013-02-21 09:57:00,
2013-02-21 05:02:00,27.9,10.2,29.96,South,180,0.0,0.0,47,0.00,,,0.00,WUHU216HW,2013-02-21 10:02:00,
2013-02-21 05:07:00,27.9,10.2,29.96,South,180,0.0,0.0,47,0.00,,,0.00,WUHU216HW,2013-02-21 10:07:00,
2013-02-21 05:12:00,27.9,10.2,29.96,South,180,0.0,0.0,47,0.00,,,0.00,WUHU216HW,2013-02-21 10:12:00,
2013-02-21 05:17:00,27.9,10.2,29.96,South,180,0.0,0.0,47,0.00,,,0.00,WUHU216HW,2013-02-21 10:17:00,
2013-02-21 05:22:00,27.9,9.7,29.96,South,180,0.0,0.0,46,0.00,,,0.00,WUHU216HW,2013-02-21 10:22:00,
2013-02-21 05:27:00,27.9,9.2,29.96,South,180,0.0,0.0,45,0.00,,,0.00,WUHU216HW,2013-02-21 10:27:00,
2013-02-21 05:32:00,27.9,9.2,29.96,South,180,0.0,0.0,45,0.00,,,0.00,WUHU216HW,2013-02-21 10:32:00,
2013-02-21 05:37:00,27.9,9.7,29.97,South,180,0.0,0.0,46,0.00,,,0.00,WUHU216HW,2013-02-21 10:37:00,
2013-02-21 05:42:00,27.7,9.6,29.95,South,180,0.0,0.0,46,0.00,,,0.00,WUHU216HW,2013-02-21 10:42:00,
2013-02-21 05:47:00,27.7,10.0,29.96,South,180,0.0,0.0,47,0.00,,,0.00,WUHU216HW,2013-02-21 10:47:00,
2013-02-21 05:52:00,27.5,10.4,29.96,South,180,0.0,0.0,48,0.00,,,0.00,WUHU216HW,2013-02-21 10:52:00,
2013-02-21 05:57:00,27.5,10.4,29.96,South,180,0.0,0.0,48,0.00,,,0.00,WUHU216HW,2013-02-21 10:57:00,
2013-02-21 06:02:00,27.5,10.4,29.96,SE,135,0.0,0.4,48,0.00,,,0.00,WUHU216HW,2013-02-21 11:02:00,
2013-02-21 06:07:00,27.5,10.4,29.95,SE,135,0.0,0.4,48,0.00,,,0.00,WUHU216HW,2013-02-21 11:07:00,
2013-02-21 06:12:00,27.5,10.4,29.95,SE,135,0.0,0.0,48,0.00,,,0.00,WUHU216HW,2013-02-21 11:12:00,
2013-02-21 06:17:00,27.5,10.4,29.96,SE,135,0.0,0.0,48,0.00,,,0.00,WUHU216HW,2013-02-21 11:17:00,
2013-02-21 06:22:00,27.7,10.5,29.97,SE,135,0.0,0.0,48,0.00,,,0.00,WUHU216HW,2013-02-21 11:22:00,
2013-02-21 06:27:00,27.5,10.4,29.97,SE,135,0.0,0.0,48,0.00,,,0.00,WUHU216HW,2013-02-21 11:27:00,
2013-02-21 06:32:00,27.5,10.4,29.97,SE,135,0.0,0.0,48,0.00,,,0.00,WUHU216HW,2013-02-21 11:32:00,
2013-02-21 06:37:00,27.5,10.4,29.97,SE,135,0.0,0.0,48,0.00,,,0.00,WUHU216HW,2013-02-21 11:37:00,
2013-02-21 06:42:00,27.5,10.9,29.98,SE,135,0.0,0.0,49,0.00,,,0.00,WUHU216HW,2013-02-21 11:42:00,
2013-02-21 06:47:00,27.4,11.2,29.97,SE,135,0.0,0.0,50,0.00,,,0.00,WUHU216HW,2013-02-21 11:47:00,
2013-02-21 06:52:00,27.4,11.2,29.98,SE,135,0.0,0.0,50,0.00,,,0.00,WUHU216HW,2013-02-21 11:52:00,
2013-02-21 06:57:00,27.4,11.6,29.98,SSE,158,0.0,0.0,51,0.00,,,0.00,WUHU216HW,2013-02-21 11:57:00,
2013-02-21 07:02:00,27.2,11.4,29.97,SSE,158,0.0,0.0,51,0.00,,,0.00,WUHU216HW,2013-02-21 12:02:00,
2013-02-21 07:07:00,27.2,11.4,29.97,SSE,158,0.0,0.0,51,0.00,,,0.00,WUHU216HW,2013-02-21 12:07:00,
2013-02-21 07:12:00,27.0,12.4,29.99,SSE,158,0.0,0.0,54,0.00,,,0.00,WUHU216HW,2013-02-21 12:12:00,
2013-02-21 07:17:00,27.0,11.6,29.98,SSE,158,0.0,0.0,52,0.00,,,0.00,WUHU216HW,2013-02-21 12:17:00,
2013-02-21 07:22:00,27.0,11.6,29.99,SSE,158,0.0,0.0,52,0.00,,,0.00,WUHU216HW,2013-02-21 12:22:00,
2013-02-21 07:27:00,27.2,11.8,29.99,SSE,158,0.0,0.0,52,0.00,,,0.00,WUHU216HW,2013-02-21 12:27:00,
2013-02-21 07:32:00,27.2,11.8,29.99,SSE,158,0.0,0.0,52,0.00,,,0.00,WUHU216HW,2013-02-21 12:32:00,
2013-02-21 07:37:00,27.4,12.0,30.00,SSE,158,0.2,0.2,52,0.00,,,0.00,WUHU216HW,2013-02-21 12:37:00,
2013-02-21 07:42:00,27.4,11.6,29.99,SSE,158,0.0,0.2,51,0.00,,,0.00,WUHU216HW,2013-02-21 12:42:00,
2013-02-21 07:47:00,27.4,12.8,29.99,SSE,158,0.0,0.0,54,0.00,,,0.00,WUHU216HW,2013-02-21 12:47:00,
2013-02-21 07:52:00,27.4,12.0,29.99,SSE,158,0.0,0.0,52,0.00,,,0.00,WUHU216HW,2013-02-21 12:52:00,
2013-02-21 07:57:00,27.4,12.0,30.00,SSE,158,0.0,0.0,52,0.00,,,0.00,WUHU216HW,2013-02-21 12:57:00,
2013-02-21 08:03:00,27.5,12.2,30.00,SSE,158,0.0,0.0,52,0.00,,,0.00,WUHU216HW,2013-02-21 13:03:00,
2013-02-21 08:08:00,27.7,12.8,29.99,SSE,158,0.0,0.0,53,0.00,,,0.00,WUHU216HW,2013-02-21 13:08:00,
2013-02-21 08:13:00,28.1,13.2,30.00,SSE,158,0.0,0.0,53,0.00,,,0.00,WUHU216HW,2013-02-21 13:13:00,
2013-02-21 08:18:00,28.3,13.7,30.00,SSE,158,0.0,0.0,54,0.00,,,0.00,WUHU216HW,2013-02-21 13:18:00,
2013-02-21 08:23:00,28.6,13.2,29.99,SSE,158,0.0,0.0,52,0.00,,,0.00,WUHU216HW,2013-02-21 13:23:00,
2013-02-21 08:28:00,29.2,11.9,30.00,SSE,158,0.0,0.0,48,0.00,,,0.00,WUHU216HW,2013-02-21 13:28:00,
2013-02-21 08:33:00,29.9,12.1,30.01,SSE,158,0.0,0.0,47,0.00,,,0.00,WUHU216HW,2013-02-21 13:33:00,
2013-02-21 08:38:00,30.2,11.9,30.01,SSE,158,0.0,0.0,46,0.00,,,0.00,WUHU216HW,2013-02-21 13:38:00,
2013-02-21 08:43:00,30.8,11.8,30.00,SSE,158,0.0,0.0,45,0.00,,,0.00,WUHU216HW,2013-02-21 13:43:00,
2013-02-21 08:48:00,31.3,12.8,30.00,SSE,158,0.0,0.0,46,0.00,,,0.00,WUHU216HW,2013-02-21 13:48:00,
2013-02-21 08:53:00,31.9,13.3,30.00,SSE,158,0.0,0.0,46,0.00,,,0.00,WUHU216HW,2013-02-21 13:53:00,
2013-02-21 08:58:00,32.2,13.2,30.01,SSE,158,0.0,0.0,45,0.00,,,0.00,WUHU216HW,2013-02-21 13:58:00,
2013-02-21 09:03:00,32.9,13.2,30.01,SSE,158,0.0,0.0,44,0.00,,,0.00,WUHU216HW,2013-02-21 14:03:00,
2013-02-21 09:08:00,33.5,13.2,30.02,SSE,158,0.0,0.0,43,0.00,,,0.00,WUHU216HW,2013-02-21 14:08:00,
2013-02-21 09:13:00,34.0,13.8,30.02,SSE,158,0.0,0.0,43,0.00,,,0.00,WUHU216HW,2013-02-21 14:13:00,
2013-02-21 09:18:00,34.6,13.8,30.00,SSE,158,0.0,0.0,42,0.00,,,0.00,WUHU216HW,2013-02-21 14:18:00,
2013-02-21 09:23:00,35.6,14.2,30.00,SSE,158,0.0,0.0,41,0.00,,,0.00,WUHU216HW,2013-02-21 14:23:00,
2013-02-21 09:28:00,36.4,14.3,30.01,SSE,158,0.0,0.0,40,0.00,,,0.00,WUHU216HW,2013-02-21 14:28:00,
2013-02-21 09:33:00,37.1,14.3,30.02,SSE,158,0.0,0.0,39,0.00,,,0.00,WUHU216HW,2013-02-21 14:33:00,
2013-02-21 09:38:00,37.8,13.1,30.00,SSE,158,0.0,0.0,36,0.00,,,0.00,WUHU216HW,2013-02-21 14:38:00,
2013-02-21 09:43:00,38.5,14.9,30.02,SSE,158,0.0,0.0,38,0.00,,,0.00,WUHU216HW,2013-02-21 14:43:00,
2013-02-21 09:48:00,38.9,15.3,30.01,SSE,158,0.0,0.0,38,0.00,,,0.00,WUHU216HW,2013-02-21 14:48:00,
2013-02-21 09:53:00,39.2,15.7,30.01,SSE,158,0.0,0.0,38,0.00,,,0.00,WUHU216HW,2013-02-21 14:53:00,
2013-02-21 09:58:00,39.6,15.3,30.02,SSE,158,0.0,0.0,37,0.00,,,0.00,WUHU216HW,2013-02-21 14:58:00,
2013-02-21 10:03:00,40.0,15.7,30.02,South,180,0.0,0.0,37,0.00,,,0.00,WUHU216HW,2013-02-21 15:03:00,
2013-02-21 10:08:00,40.1,15.8,30.03,South,180,0.0,0.0,37,0.00,,,0.00,WUHU216HW,2013-02-21 15:08:00,
2013-02-21 10:13:00,40.7,15.7,30.02,SSW,203,0.0,0.0,36,0.00,,,0.00,WUHU216HW,2013-02-21 15:13:00,
2013-02-21 10:18:00,40.9,15.8,30.02,SSW,203,0.0,0.0,36,0.00,,,0.00,WUHU216HW,2013-02-21 15:18:00,
2013-02-21 10:23:00,41.2,15.5,30.02,SSW,203,0.0,0.0,35,0.00,,,0.00,WUHU216HW,2013-02-21 15:23:00,
2013-02-21 10:28:00,41.8,15.3,30.01,SSW,203,0.0,0.0,34,0.00,,,0.00,WUHU216HW,2013-02-21 15:28:00,
2013-02-21 10:33:00,42.3,15.0,30.01,SSW,203,0.0,0.0,33,0.00,,,0.00,WUHU216HW,2013-02-21 15:33:00,
2013-02-21 10:38:00,42.8,14.9,30.01,SSW,203,0.0,0.0,32,0.00,,,0.00,WUHU216HW,2013-02-21 15:38:00,
2013-02-21 10:43:00,43.6,16.1,30.01,SSW,203,0.0,0.2,33,0.00,,,0.00,WUHU216HW,2013-02-21 15:43:00,
2013-02-21 10:48:00,45.0,17.5,30.01,SW,225,0.0,0.4,33,0.00,,,0.00,WUHU216HW,2013-02-21 15:48:00,
2013-02-21 10:53:00,45.7,17.5,30.01,SW,225,0.0,0.4,32,0.00,,,0.00,WUHU216HW,2013-02-21 15:53:00,
2013-02-21 10:58:00,46.3,17.3,30.00,SW,225,0.0,0.0,31,0.00,,,0.00,WUHU216HW,2013-02-21 15:58:00,
2013-02-21 11:03:00,46.6,16.9,30.00,WSW,248,0.0,0.0,30,0.00,,,0.00,WUHU216HW,2013-02-21 16:03:00,
2013-02-21 11:08:00,47.2,16.5,30.05,WSW,248,0.0,0.0,29,0.00,,,0.00,WUHU216HW,2013-02-21 16:08:00,
2013-02-21 11:13:00,47.5,16.7,30.04,WNW,293,0.0,0.0,29,0.00,,,0.00,WUHU216HW,2013-02-21 16:13:00,
2013-02-21 11:18:00,47.9,13.4,30.05,SW,225,0.4,0.4,25,0.00,,,0.00,WUHU216HW,2013-02-21 16:18:00,
2013-02-21 11:23:00,48.6,13.1,30.05,West,270,0.0,0.9,24,0.00,,,0.00,WUHU216HW,2013-02-21 16:23:00,
2013-02-21 11:28:00,49.1,10.7,30.04,WNW,293,0.4,0.9,21,0.00,,,0.00,WUHU216HW,2013-02-21 16:28:00,
2013-02-21 11:33:00,50.0,12.4,30.05,WSW,248,0.7,0.9,22,0.00,,,0.00,WUHU216HW,2013-02-21 16:33:00,
2013-02-21 11:38:00,50.2,14.4,30.05,West,270,0.2,1.1,24,0.00,,,0.00,WUHU216HW,2013-02-21 16:38:00,
2013-02-21 11:43:00,50.4,17.4,30.05,WNW,293,0.4,1.1,27,0.00,,,0.00,WUHU216HW,2013-02-21 16:43:00,
2013-02-21 11:48:00,50.8,14.0,30.04,WSW,248,0.4,1.1,23,0.00,,,0.00,WUHU216HW,2013-02-21 16:48:00,
2013-02-21 11:53:00,51.3,15.4,30.04,SSE,158,0.7,1.1,24,0.00,,,0.00,WUHU216HW,2013-02-21 16:53:00,
2013-02-21 11:58:00,51.7,18.5,30.04,WSW,248,1.1,1.3,27,0.00,,,0.00,WUHU216HW,2013-02-21 16:58:00,
2013-02-21 12:03:00,51.7,18.5,30.03,SE,135,0.0,1.3,27,0.00,,,0.00,WUHU216HW,2013-02-21 17:03:00,
2013-02-21 12:08:00,51.8,18.6,30.04,West,270,1.1,1.1,27,0.00,,,0.00,WUHU216HW,2013-02-21 17:08:00,
2013-02-21 12:13:00,52.2,17.0,30.03,NNW,338,0.0,1.6,25,0.00,,,0.00,WUHU216HW,2013-02-21 17:13:00,
2013-02-21 12:18:00,52.6,17.4,30.03,SSE,158,0.4,1.8,25,0.00,,,0.00,WUHU216HW,2013-02-21 17:18:00,
2013-02-21 12:23:00,52.7,20.3,30.04,WSW,248,0.2,1.8,28,0.00,,,0.00,WUHU216HW,2013-02-21 17:23:00,
2013-02-21 12:28:00,53.3,21.8,30.03,WNW,293,0.2,1.8,29,0.00,,,0.00,WUHU216HW,2013-02-21 17:28:00,
2013-02-21 12:33:00,53.6,20.2,30.02,West,270,1.1,1.8,27,0.00,,,0.00,WUHU216HW,2013-02-21 17:33:00,
2013-02-21 12:38:00,54.0,21.4,30.03,WSW,248,0.4,1.6,28,0.00,,,0.00,WUHU216HW,2013-02-21 17:38:00,
2013-02-21 12:43:00,54.4,21.7,30.02,WSW,248,1.8,1.8,28,0.00,,,0.00,WUHU216HW,2013-02-21 17:43:00,
2013-02-21 12:48:00,54.0,17.7,30.01,South,180,0.9,2.5,24,0.00,,,0.00,WUHU216HW,2013-02-21 17:48:00,
2013-02-21 12:53:00,54.5,21.0,30.01,WSW,248,0.2,2.5,27,0.00,,,0.00,WUHU216HW,2013-02-21 17:53:00,
2013-02-21 12:58:00,55.3,21.5,30.02,WNW,293,0.2,0.9,27,0.00,,,0.00,WUHU216HW,2013-02-21 17:58:00,
2013-02-21 13:03:00,55.4,20.7,30.01,West,270,0.4,1.3,26,0.00,,,0.00,WUHU216HW,2013-02-21 18:03:00,
2013-02-21 13:08:00,56.0,20.3,30.01,WNW,293,1.1,1.6,25,0.00,,,0.00,WUHU216HW,2013-02-21 18:08:00,
2013-02-21 13:13:00,55.3,18.7,30.01,SE,135,1.1,1.6,24,0.00,,,0.00,WUHU216HW,2013-02-21 18:13:00,
2013-02-21 13:18:00,55.8,20.1,30.00,West,270,2.0,2.0,25,0.00,,,0.00,WUHU216HW,2013-02-21 18:18:00,
2013-02-21 13:23:00,56.7,19.0,30.00,West,270,0.4,2.0,23,0.00,,,0.00,WUHU216HW,2013-02-21 18:23:00,
2013-02-21 13:28:00,56.9,19.1,29.99,SSE,158,0.7,1.6,23,0.00,,,0.00,WUHU216HW,2013-02-21 18:28:00,
2013-02-21 13:33:00,57.2,20.3,30.00,West,270,0.4,1.1,24,0.00,,,0.00,WUHU216HW,2013-02-21 18:33:00,
2013-02-21 13:38:00,55.8,19.2,29.99,West,270,1.3,1.6,24,0.00,,,0.00,WUHU216HW,2013-02-21 18:38:00,
2013-02-21 13:43:00,55.3,19.6,29.98,WNW,293,0.4,1.6,25,0.00,,,0.00,WUHU216HW,2013-02-21 18:43:00,
2013-02-21 13:48:00,55.1,19.5,29.99,WNW,293,0.7,1.8,25,0.00,,,0.00,WUHU216HW,2013-02-21 18:48:00,
2013-02-21 13:53:00,54.5,18.1,29.99,NNW,338,0.4,1.8,24,0.00,,,0.00,WUHU216HW,2013-02-21 18:53:00,
2013-02-21 13:58:00,54.4,17.9,29.99,West,270,1.1,1.8,24,0.00,,,0.00,WUHU216HW,2013-02-21 18:58:00,
2013-02-21 14:03:00,54.5,18.1,29.99,WNW,293,1.1,1.8,24,0.00,,,0.00,WUHU216HW,2013-02-21 19:03:00,
2013-02-21 14:08:00,54.9,17.5,29.98,WNW,293,0.7,1.8,23,0.00,,,0.00,WUHU216HW,2013-02-21 19:08:00,
2013-02-21 14:13:00,54.4,17.9,29.99,WNW,293,1.3,2.5,24,0.00,,,0.00,WUHU216HW,2013-02-21 19:13:00,
2013-02-21 14:18:00,54.5,17.1,29.99,SSW,203,1.1,2.5,23,0.00,,,0.00,WUHU216HW,2013-02-21 19:18:00,
2013-02-21 14:23:00,54.7,18.3,29.99,West,270,1.8,1.8,24,0.00,,,0.00,WUHU216HW,2013-02-21 19:23:00,
2013-02-21 14:28:00,55.1,19.5,29.99,SSE,158,0.9,1.8,25,0.00,,,0.00,WUHU216HW,2013-02-21 19:28:00,
2013-02-21 14:33:00,54.9,17.5,29.99,SSW,203,2.2,2.2,23,0.00,,,0.00,WUHU216HW,2013-02-21 19:33:00,
2013-02-21 14:38:00,54.4,17.9,29.98,ESE,113,1.1,2.2,24,0.00,,,0.00,WUHU216HW,2013-02-21 19:38:00,
2013-02-21 14:43:00,54.2,17.8,30.00,West,270,2.5,2.5,24,0.00,,,0.00,WUHU216HW,2013-02-21 19:43:00,
2013-02-21 14:48:00,54.2,17.8,30.01,West,270,0.7,2.9,24,0.00,,,0.00,WUHU216HW,2013-02-21 19:48:00,
2013-02-21 14:53:00,54.0,17.7,30.00,NNE,23,0.4,2.9,24,0.00,,,0.00,WUHU216HW,2013-02-21 19:53:00,
2013-02-21 14:58:00,54.4,19.8,30.01,WNW,293,0.0,2.2,26,0.00,,,0.00,WUHU216HW,2013-02-21 19:58:00,
2013-02-21 15:03:00,55.1,19.5,30.00,SE,135,1.1,1.3,25,0.00,,,0.00,WUHU216HW,2013-02-21 20:03:00,
2013-02-21 15:08:00,55.6,20.0,30.00,WNW,293,0.0,1.3,25,0.00,,,0.00,WUHU216HW,2013-02-21 20:08:00,
2013-02-21 15:13:00,55.8,19.2,30.00,West,270,0.2,2.0,24,0.00,,,0.00,WUHU216HW,2013-02-21 20:13:00,
2013-02-21 15:18:00,54.9,18.4,30.00,NE,45,0.4,2.0,24,0.00,,,0.00,WUHU216HW,2013-02-21 20:18:00,
2013-02-21 15:23:00,54.4,18.9,29.99,West,270,0.0,1.1,25,0.00,,,0.00,WUHU216HW,2013-02-21 20:23:00,
2013-02-21 15:28:00,54.4,17.9,29.99,NE,45,0.7,1.1,24,0.00,,,0.00,WUHU216HW,2013-02-21 20:28:00,
2013-02-21 15:33:00,54.4,18.9,29.99,SSE,158,1.8,1.8,25,0.00,,,0.00,WUHU216HW,2013-02-21 20:33:00,
2013-02-21 15:38:00,53.8,18.5,29.99,NNW,338,0.0,1.8,25,0.00,,,0.00,WUHU216HW,2013-02-21 20:38:00,
2013-02-21 15:43:00,53.6,19.3,29.99,WNW,293,0.2,0.7,26,0.00,,,0.00,WUHU216HW,2013-02-21 20:43:00,
2013-02-21 15:48:00,53.5,17.2,29.99,West,270,0.4,1.3,24,0.00,,,0.00,WUHU216HW,2013-02-21 20:48:00,
2013-02-21 15:53:00,53.1,17.8,30.00,West,270,0.0,1.3,25,0.00,,,0.00,WUHU216HW,2013-02-21 20:53:00,
2013-02-21 15:58:00,53.6,20.2,29.99,NW,315,0.0,1.3,27,0.00,,,0.00,WUHU216HW,2013-02-21 20:58:00,
2013-02-21 16:03:00,53.5,17.2,30.00,WSW,248,1.8,1.8,24,0.00,,,0.00,WUHU216HW,2013-02-21 21:03:00,
2013-02-21 16:08:00,52.9,18.6,29.99,West,270,0.0,1.8,26,0.00,,,0.00,WUHU216HW,2013-02-21 21:08:00,
2013-02-21 16:13:00,52.9,19.5,29.99,NW,315,0.2,0.7,27,0.00,,,0.00,WUHU216HW,2013-02-21 21:13:00,
2013-02-21 16:18:00,53.1,19.7,29.99,West,270,0.0,0.9,27,0.00,,,0.00,WUHU216HW,2013-02-21 21:18:00,
2013-02-21 16:23:00,53.3,19.9,30.00,West,270,0.0,0.9,27,0.00,,,0.00,WUHU216HW,2013-02-21 21:23:00,
2013-02-21 16:28:00,53.1,19.7,29.99,SE,135,0.0,1.3,27,0.00,,,0.00,WUHU216HW,2013-02-21 21:28:00,
2013-02-21 16:33:00,53.1,20.7,30.00,SE,135,0.0,1.3,28,0.00,,,0.00,WUHU216HW,2013-02-21 21:33:00,
2013-02-21 16:38:00,53.3,20.8,29.99,SE,135,0.4,1.1,28,0.00,,,0.00,WUHU216HW,2013-02-21 21:38:00,
2013-02-21 16:43:00,52.9,21.4,30.00,SSW,203,0.4,0.4,29,0.00,,,0.00,WUHU216HW,2013-02-21 21:43:00,
2013-02-21 16:48:00,52.7,20.3,30.00,SE,135,0.0,1.1,28,0.00,,,0.00,WUHU216HW,2013-02-21 21:48:00,
2013-02-21 16:53:00,52.4,20.0,30.00,SW,225,0.4,1.1,28,0.00,,,0.00,WUHU216HW,2013-02-21 21:53:00,
2013-02-21 16:58:00,51.8,20.5,30.00,ESE,113,1.1,1.1,29,0.00,,,0.00,WUHU216HW,2013-02-21 21:58:00,
2013-02-21 17:03:00,51.5,20.2,29.99,SE,135,0.7,1.6,29,0.00,,,0.00,WUHU216HW,2013-02-21 22:03:00,
2013-02-21 17:08:00,51.3,20.0,29.99,SE,135,0.2,1.6,29,0.00,,,0.00,WUHU216HW,2013-02-21 22:08:00,
2013-02-21 17:13:00,51.1,20.8,29.99,SE,135,0.4,0.9,30,0.00,,,0.00,WUHU216HW,2013-02-21 22:13:00,
2013-02-21 17:18:00,50.9,20.6,29.99,SE,135,0.0,0.9,30,0.00,,,0.00,WUHU216HW,2013-02-21 22:18:00,
2013-02-21 17:23:00,50.6,21.0,29.99,SE,135,0.0,0.2,31,0.00,,,0.00,WUHU216HW,2013-02-21 22:23:00,
2013-02-21 17:28:00,50.4,20.8,29.99,SE,135,0.0,0.0,31,0.00,,,0.00,WUHU216HW,2013-02-21 22:28:00,
2013-02-21 17:33:00,50.0,20.5,29.99,SE,135,0.0,0.0,31,0.00,,,0.00,WUHU216HW,2013-02-21 22:33:00,
2013-02-21 17:38:00,49.9,20.4,29.98,SE,135,0.0,0.2,31,0.00,,,0.00,WUHU216HW,2013-02-21 22:38:00,
2013-02-21 17:43:00,49.5,20.7,29.99,SE,135,0.0,0.2,32,0.00,,,0.00,WUHU216HW,2013-02-21 22:43:00,
2013-02-21 17:48:00,49.3,20.6,29.98,SE,135,0.0,0.0,32,0.00,,,0.00,WUHU216HW,2013-02-21 22:48:00,
2013-02-21 17:53:00,49.0,20.3,29.99,SE,135,0.0,0.0,32,0.00,,,0.00,WUHU216HW,2013-02-21 22:53:00,
2013-02-21 17:58:00,48.6,20.0,29.98,SE,135,0.0,0.4,32,0.00,,,0.00,WUHU216HW,2013-02-21 22:58:00,
2013-02-21 18:03:00,48.4,19.8,29.98,SE,135,0.0,0.4,32,0.00,,,0.00,WUHU216HW,2013-02-21 23:03:00,
2013-02-21 18:08:00,48.1,19.5,29.99,SE,135,0.0,0.0,32,0.00,,,0.00,WUHU216HW,2013-02-21 23:08:00,
2013-02-21 18:13:00,47.9,20.1,29.98,SE,135,0.0,0.9,33,0.00,,,0.00,WUHU216HW,2013-02-21 23:13:00,
2013-02-21 18:18:00,47.3,19.5,29.98,SE,135,0.4,0.9,33,0.00,,,0.00,WUHU216HW,2013-02-21 23:18:00,
2013-02-21 18:23:00,47.0,19.3,29.99,SE,135,1.1,1.6,33,0.00,,,0.00,WUHU216HW,2013-02-21 23:23:00,
2013-02-21 18:28:00,46.4,18.7,29.99,SE,135,1.1,1.6,33,0.00,,,0.00,WUHU216HW,2013-02-21 23:28:00,
2013-02-21 18:33:00,45.7,18.1,29.99,SE,135,2.5,2.7,33,0.00,,,0.00,WUHU216HW,2013-02-21 23:33:00,
2013-02-21 18:38:00,45.4,17.7,29.98,SE,135,0.7,2.7,33,0.00,,,0.00,WUHU216HW,2013-02-21 23:38:00,
2013-02-21 18:43:00,45.0,17.5,29.98,ESE,113,1.3,2.5,33,0.00,,,0.00,WUHU216HW,2013-02-21 23:43:00,
2013-02-21 18:48:00,45.0,18.1,29.99,SE,135,0.4,1.3,34,0.00,,,0.00,WUHU216HW,2013-02-21 23:48:00,
2013-02-21 18:53:00,44.8,18.6,29.99,SE,135,1.3,1.3,35,0.00,,,0.00,WUHU216HW,2013-02-21 23:53:00,
2013-02-21 18:58:00,44.6,17.8,29.99,SE,135,0.4,1.3,34,0.00,,,0.00,WUHU216HW,2013-02-21 23:58:00,
2013-02-21 19:03:00,44.6,17.1,30.00,SSE,158,1.1,2.2,33,0.00,,,0.00,WUHU216HW,2013-02-22 00:03:00,
2013-02-21 19:08:00,44.6,17.8,29.99,SSE,158,0.0,2.2,34,0.00,,,0.00,WUHU216HW,2013-02-22 00:08:00,
2013-02-21 19:13:00,44.6,17.1,30.00,SSE,158,0.0,1.1,33,0.00,,,0.00,WUHU216HW,2013-02-22 00:13:00,
2013-02-21 19:18:00,44.5,17.7,30.00,SE,135,0.2,0.4,34,0.00,,,0.00,WUHU216HW,2013-02-22 00:18:00,
2013-02-21 19:23:00,44.3,18.1,29.95,SSE,158,0.0,0.4,35,0.00,,,0.00,WUHU216HW,2013-02-22 00:23:00,
2013-02-21 19:28:00,44.3,18.1,29.95,SE,135,0.0,0.4,35,0.00,,,0.00,WUHU216HW,2013-02-22 00:28:00,
2013-02-21 19:33:00,44.1,18.0,29.96,SE,135,0.2,1.1,35,0.00,,,0.00,WUHU216HW,2013-02-22 00:33:00,
2013-02-21 19:38:00,44.1,18.6,29.95,SE,135,0.0,1.1,36,0.00,,,0.00,WUHU216HW,2013-02-22 00:38:00,
2013-02-21 19:43:00,43.9,19.2,29.94,SSW,203,0.4,0.4,37,0.00,,,0.00,WUHU216HW,2013-02-22 00:43:00,
2013-02-21 19:48:00,43.4,22.2,29.94,ESE,113,1.1,1.1,43,0.00,,,0.00,WUHU216HW,2013-02-22 00:48:00,
2013-02-21 19:53:00,42.8,22.9,29.96,SE,135,1.1,1.1,45,0.00,,,0.00,WUHU216HW,2013-02-22 00:53:00,
2013-02-21 19:58:00,41.8,23.4,29.97,SE,135,0.7,1.3,48,0.00,,,0.00,WUHU216HW,2013-02-22 00:58:00,
2013-02-21 20:03:00,41.6,24.3,29.98,SE,135,0.4,1.3,50,0.00,,,0.00,WUHU216HW,2013-02-22 01:03:00,
2013-02-21 20:08:00,41.2,25.8,29.98,SE,135,0.4,0.4,54,0.00,,,0.00,WUHU216HW,2013-02-22 01:08:00,
2013-02-21 20:13:00,40.9,23.6,29.99,SE,135,0.0,1.1,50,0.00,,,0.00,WUHU216HW,2013-02-22 01:13:00,
2013-02-21 20:18:00,41.0,23.8,30.01,West,270,0.0,1.1,50,0.00,,,0.00,WUHU216HW,2013-02-22 01:18:00,
2013-02-21 20:23:00,40.3,29.4,30.02,West,270,0.0,0.7,65,0.00,,,0.00,WUHU216HW,2013-02-22 01:23:00,
2013-02-21 20:28:00,39.8,26.1,30.02,WSW,248,0.0,0.0,58,0.00,,,0.00,WUHU216HW,2013-02-22 01:28:00,
2013-02-21 20:33:00,39.6,25.9,30.02,WSW,248,0.4,0.4,58,0.00,,,0.00,WUHU216HW,2013-02-22 01:33:00,
2013-02-21 20:38:00,39.6,26.4,30.02,SW,225,0.4,0.4,59,0.00,,,0.00,WUHU216HW,2013-02-22 01:38:00,
2013-02-21 20:43:00,39.2,26.0,30.02,SW,225,0.0,0.4,59,0.00,,,0.00,WUHU216HW,2013-02-22 01:43:00,
2013-02-21 20:48:00,39.1,26.3,30.02,SW,225,0.0,0.4,60,0.00,,,0.00,WUHU216HW,2013-02-22 01:48:00,
2013-02-21 20:54:00,38.9,26.6,30.01,SW,225,0.0,0.0,61,0.00,,,0.00,WUHU216HW,2013-02-22 01:54:00,
2013-02-21 20:59:00,38.3,27.5,30.01,SW,225,0.0,0.0,65,0.00,,,0.00,WUHU216HW,2013-02-22 01:59:00,
2013-02-21 21:04:00,38.2,26.7,30.01,SW,225,0.0,0.0,63,0.00,,,0.00,WUHU216HW,2013-02-22 02:04:00,
2013-02-21 21:09:00,38.0,26.5,29.98,SW,225,0.0,0.0,63,0.00,,,0.00,WUHU216HW,2013-02-22 02:09:00,
2013-02-21 21:14:00,37.8,28.2,30.00,SW,225,0.0,0.0,68,0.00,,,0.00,WUHU216HW,2013-02-22 02:14:00,
2013-02-21 21:19:00,37.4,27.9,29.98,SE,135,0.0,1.1,68,0.00,,,0.00,WUHU216HW,2013-02-22 02:19:00,
2013-02-21 21:24:00,37.3,30.4,29.99,SSE,158,0.4,1.1,76,0.00,,,0.00,WUHU216HW,2013-02-22 02:24:00,
2013-02-21 21:29:00,36.9,30.1,30.00,SE,135,1.1,1.1,76,0.00,,,0.00,WUHU216HW,2013-02-22 02:29:00,
2013-02-21 21:34:00,36.4,28.8,30.01,SE,135,0.7,1.3,74,0.00,,,0.00,WUHU216HW,2013-02-22 02:34:00,
2013-02-21 21:39:00,36.4,28.8,30.02,SE,135,0.2,1.3,74,0.00,,,0.00,WUHU216HW,2013-02-22 02:39:00,
2013-02-21 21:44:00,36.4,27.9,30.00,SE,135,0.4,1.1,71,0.00,,,0.00,WUHU216HW,2013-02-22 02:44:00,
2013-02-21 21:49:00,36.4,27.9,30.00,SE,135,0.0,0.4,71,0.00,,,0.00,WUHU216HW,2013-02-22 02:49:00,
2013-02-21 21:54:00,36.2,28.4,29.99,SE,135,0.0,0.2,73,0.00,,,0.00,WUHU216HW,2013-02-22 02:54:00,
2013-02-21 21:59:00,36.2,28.0,30.00,SE,135,0.0,0.7,72,0.00,,,0.00,WUHU216HW,2013-02-22 02:59:00,
2013-02-21 22:04:00,36.0,28.2,29.99,SE,135,0.0,0.7,73,0.00,,,0.00,WUHU216HW,2013-02-22 03:04:00,
2013-02-21 22:09:00,36.0,28.2,30.00,SE,135,0.0,0.0,73,0.00,,,0.00,WUHU216HW,2013-02-22 03:09:00,
2013-02-21 22:14:00,36.0,28.2,29.99,SE,135,0.0,0.0,73,0.00,,,0.00,WUHU216HW,2013-02-22 03:14:00,
2013-02-21 22:19:00,35.8,31.2,30.02,West,270,0.2,0.2,83,0.00,,,0.00,WUHU216HW,2013-02-22 03:19:00,
2013-02-21 22:24:00,35.5,31.1,30.03,SE,135,1.1,1.1,84,0.00,,,0.00,WUHU216HW,2013-02-22 03:24:00,
2013-02-21 22:29:00,35.3,29.3,30.02,SE,135,0.0,1.1,79,0.00,,,0.00,WUHU216HW,2013-02-22 03:29:00,
2013-02-21 22:34:00,35.3,29.1,30.01,SE,135,0.0,0.0,78,0.00,,,0.00,WUHU216HW,2013-02-22 03:34:00,
2013-02-21 22:39:00,35.3,30.9,30.02,SSE,158,0.0,0.0,84,0.00,,,0.00,WUHU216HW,2013-02-22 03:39:00,
2013-02-21 22:44:00,35.1,30.7,30.02,SSE,158,0.0,0.0,84,0.00,,,0.00,WUHU216HW,2013-02-22 03:44:00,
2013-02-21 22:49:00,34.9,29.9,30.02,SSE,158,0.0,0.0,82,0.00,,,0.00,WUHU216HW,2013-02-22 03:49:00,
2013-02-21 22:54:00,34.9,29.6,30.02,WSW,248,0.0,0.7,81,0.00,,,0.00,WUHU216HW,2013-02-22 03:54:00,
2013-02-21 22:59:00,34.9,29.6,30.02,WSW,248,0.0,0.7,81,0.00,,,0.00,WUHU216HW,2013-02-22 03:59:00,
2013-02-21 23:04:00,34.9,29.6,30.02,WSW,248,0.0,0.0,81,0.00,,,0.00,WUHU216HW,2013-02-22 04:04:00,
2013-02-21 23:09:00,34.9,29.6,30.02,WSW,248,0.0,0.0,81,0.00,,,0.00,WUHU216HW,2013-02-22 04:09:00,
2013-02-21 23:14:00,34.9,29.3,30.06,SW,225,0.0,0.0,80,0.00,,,0.00,WUHU216HW,2013-02-22 04:14:00,
2013-02-21 23:19:00,35.1,29.5,30.06,SW,225,0.0,0.0,80,0.00,,,0.00,WUHU216HW,2013-02-22 04:19:00,
2013-02-21 23:24:00,35.1,30.1,30.07,SW,225,0.0,0.0,82,0.00,,,0.00,WUHU216HW,2013-02-22 04:24:00,
2013-02-21 23:29:00,35.1,30.7,30.07,SW,225,0.0,0.0,84,0.00,,,0.00,WUHU216HW,2013-02-22 04:29:00,
2013-02-21 23:34:00,35.1,30.7,30.05,SW,225,0.0,0.0,84,0.00,,,0.00,WUHU216HW,2013-02-22 04:34:00,
2013-02-21 23:39:00,35.1,31.0,30.07,SW,225,0.0,0.0,85,0.00,,,0.00,WUHU216HW,2013-02-22 04:39:00,
2013-02-21 23:44:00,35.1,31.2,30.07,SW,225,0.0,0.0,86,0.00,,,0.00,WUHU216HW,2013-02-22 04:44:00,
2013-02-21 23:49:00,35.1,31.0,30.07,SW,225,0.0,0.0,85,0.00,,,0.00,WUHU216HW,2013-02-22 04:49:00,
2013-02-21 23:54:00,35.1,30.7,30.07,SW,225,0.0,0.0,84,0.00,,,0.00,WUHU216HW,2013-02-22 04:54:00,
2013-02-21 23:59:00,35.3,30.6,30.06,SW,225,0.0,0.0,83,0.00,,,0.00,WUHU216HW,2013-02-22 04:59:00,